User: anonymous
Location: Luz Observatory
(34.5000°N, 117.2833°W)
Time: 03:43:45
(UTC-07:00)
Language:

Okean 3 Rocket - Orbit

View from above orbital plane
View from above orbital plane
View from above satellite
View from above satellite

Ground track
Ground track

The orbit data is extracted from the following two-line orbital elements,

1 21398U 91039B   14231.15977329  .00000209  00000-0  25006-4 0  8200
2 21398 082.5222 107.5797 0020545 330.9939 188.3038 14.79189430251166
Epoch (UTC): 19 August 2014 03:50:04
Eccentricity: 0.0020545
inclination: 82.5222°
perigee height: 617 km
apogee height: 646 km
right ascension of ascending node: 107.5797°
argument of perigee: 330.9939°
revolutions per day: 14.79189430
mean anomaly at epoch: 188.3038°
orbit number at epoch: 25116

The dashed part of the orbit path shows where the satellite is in the earth's shadow,  

DLR